Theta_e
326 326 326 327 327 327 328 327 329 330 330 329 329 328 330 332 331 331 330 329 329 325 323 326 327 326 326 327 327 325 322 323 322 321 321 317 313 313 315 316 317 318 317 317 316 315 315 315 315 314 313 312 311 309 307 306 305 306 307 308 309 309 310 310 310 310 310 309 309 308 308 308 308 307 308 309 309 310 310 311 311 311 311 311 311 311 311 311 311 312 311 311 311 309 307 304 302
326 326 325 326 327 328 328 327 329 329 329 328 328 331 332 331 330 330 328 327 327 323 323 324 324 323 323 323 323 325 321 317 316 317 315 313 313 314 315 316 317 318 317 317 316 315 314 314 314 313 312 311 311 309 308 308 308 308 309 309 310 310 310 310 310 310 310 309 309 309 308 308 307 307 308 308 309 309 310 310 310 311 311 311 310 310 310 310 311 311 311 310 310 309 308 306 303
325 326 324 325 327 328 328 328 329 329 329 327 329 336 336 332 328 327 325 323 323 321 322 322 322 323 323 324 323 325 321 315 314 314 312 312 313 313 315 316 317 317 317 317 315 314 313 314 313 312 311 310 310 309 309 309 309 309 309 309 310 310 310 310 310 310 309 309 310 309 309 308 307 307 308 308 308 309 309 310 310 310 310 310 310 310 310 310 310 310 310 310 310 309 308 306 303
324 325 324 324 326 327 329 330 330 330 330 328 332 336 333 329 326 324 322 320 320 320 322 322 323 322 322 324 323 322 319 315 313 314 313 313 313 314 315 316 317 317 317 317 315 313 312 313 311 311 310 309 309 309 309 309 309 309 309 309 309 309 309 309 309 309 309 309 309 308 308 308 308 308 308 308 308 308 309 309 309 309 309 309 309 309 309 309 309 309 309 309 309 309 307 306 303
323 324 324 324 326 328 329 330 331 331 330 330 333 334 327 326 326 323 321 319 319 321 322 323 323 321 319 320 321 318 315 315 313 313 313 313 313 314 315 316 317 316 316 316 314 312 311 311 310 310 309 309 309 308 308 308 308 309 308 308 308 308 308 308 308 308 308 307 307 307 306 306 307 307 307 307 307 308 308 308 308 308 308 308 308 308 308 308 308 308 308 308 309 308 307 306 303
324 324 324 325 327 326 327 329 329 330 331 330 331 331 325 324 325 323 321 319 319 319 321 323 321 320 318 317 318 314 313 315 312 312 313 312 312 314 315 316 317 316 316 315 313 312 309 309 309 309 308 308 308 308 308 308 308 308 308 308 308 308 307 307 307 307 307 307 306 306 305 305 305 305 306 306 306 306 307 307 307 307 307 307 307 307 306 307 307 307 307 308 308 306 306 306 302
326 324 323 325 326 326 327 328 329 329 329 329 328 328 326 323 323 322 322 320 319 318 319 322 319 318 317 314 314 311 312 314 311 311 312 312 312 314 315 315 316 315 315 313 312 311 306 307 308 308 308 308 308 308 308 307 307 307 307 306 305 305 304 304 304 305 304 305 305 305 304 303 303 302 303 303 304 305 305 306 306 305 305 305 305 305 305 305 305 306 306 307 306 306 306 304 301
324 322 323 324 327 327 328 328 328 329 328 328 327 326 325 323 322 322 323 321 320 319 319 320 318 317 317 313 312 309 310 311 310 310 310 312 312 314 314 315 315 314 313 312 312 308 302 304 307 307 307 307 307 307 307 306 305 304 304 303 301 300 299 299 299 299 299 300 300 301 300 300 299 298 298 299 301 302 303 304 304 303 303 303 304 304 305 305 305 305 306 306 306 305 304 302 301
321 322 324 325 327 327 327 327 327 327 327 327 325 324 323 323 321 321 322 321 320 318 318 319 316 317 316 313 310 308 308 309 308 309 309 311 312 313 314 313 313 312 312 311 311 304 299 303 306 307 307 307 307 307 306 305 303 302 301 300 299 298 297 297 296 296 296 296 296 296 296 296 296 296 297 297 297 298 299 301 301 302 303 303 302 303 303 303 303 303 303 304 304 303 302 301 301
321 322 324 324 326 325 324 325 326 326 326 325 323 322 321 321 320 320 320 320 319 317 317 318 316 316 315 312 310 309 307 307 308 308 309 310 312 313 312 311 310 310 311 311 309 300 298 303 305 307 306 305 306 304 303 301 299 298 297 297 297 297 297 296 296 295 295 295 295 295 296 296 296 297 297 297 297 297 298 298 299 300 300 300 300 300 300 300 300 300 300 301 301 301 300 301 301
320 322 321 322 323 323 322 322 323 324 323 322 321 319 318 318 318 318 319 319 318 316 315 315 315 314 314 312 309 308 307 307 307 307 308 310 312 312 311 309 308 309 310 309 306 299 297 301 304 305 304 302 301 299 297 296 296 296 296 296 296 296 296 296 295 295 295 295 295 295 296 296 296 296 297 297 297 298 298 298 298 298 298 299 298 298 298 299 299 299 299 299 299 299 299 299 299
320 322 322 321 320 320 320 320 321 321 321 319 317 316 316 317 316 317 318 318 318 317 316 315 314 313 314 312 308 306 306 307 307 306 308 310 311 310 308 307 306 308 308 307 304 298 297 299 300 300 299 298 297 296 296 295 295 295 295 295 295 295 295 295 295 295 295 295 296 295 296 296 296 296 297 297 297 297 297 297 297 297 297 297 297 297 297 297 298 298 298 298 298 298 298 298 298
319 322 323 322 321 319 319 320 321 320 319 317 315 315 315 317 317 317 317 317 318 317 316 315 313 312 312 310 307 306 307 307 307 306 308 310 309 307 306 304 305 307 307 307 304 298 297 297 297 297 297 297 296 296 296 295 295 295 295 295 295 295 295 295 295 295 295 295 295 295 296 296 296 296 296 297 297 296 296 296 296 296 296 296 297 296 296 296 297 297 298 298 298 298 298 298 298
318 319 321 323 322 321 320 320 320 318 317 315 316 314 315 317 316 316 315 316 316 315 316 314 313 313 311 309 307 307 306 306 306 306 308 309 307 304 303 303 305 306 307 307 304 301 300 299 297 296 296 296 295 295 295 295 295 295 295 295 295 295 295 295 295 295 295 295 295 295 295 295 295 296 296 296 296 296 296 296 296 296 296 296 297 297 297 297 297 297 297 298 298 298 298 298 298
316 317 319 321 320 319 319 319 318 317 315 314 315 314 315 316 314 316 316 315 314 314 315 314 313 311 310 309 308 307 306 306 306 307 308 308 305 302 301 302 304 305 307 307 306 305 305 304 300 296 298 298 297 297 296 294 294 295 294 295 295 295 295 295 295 295 295 295 295 295 295 295 295 296 296 296 296 296 296 296 296 296 296 296 297 297 297 297 297 297 297 298 298 298 298 298 298
315 315 318 318 318 317 317 318 318 317 314 313 315 314 315 316 315 315 315 315 314 314 314 313 312 309 308 309 308 307 306 305 306 306 307 306 304 303 301 301 302 304 306 307 307 307 307 306 303 301 303 304 303 303 302 297 294 294 294 294 295 294 295 294 295 295 295 295 295 295 295 295 296 297 297 296 296 295 295 295 295 296 296 296 296 296 297 297 297 297 297 297 298 298 298 298 298
314 315 316 316 316 316 316 316 315 314 313 314 314 312 312 315 316 314 312 313 314 314 313 311 310 308 307 307 307 307 306 305 305 306 305 305 304 302 301 299 299 301 304 305 306 306 306 306 305 305 306 305 305 304 304 301 295 294 295 295 295 294 294 294 295 295 295 295 295 295 295 296 297 298 297 296 295 295 295 295 295 295 295 296 296 296 296 296 296 296 296 296 297 297 297 297 297
314 315 315 315 315 316 315 313 312 312 312 312 312 311 311 313 315 313 311 312 314 314 313 311 309 307 306 305 305 305 305 305 304 305 305 304 303 301 300 298 298 299 301 302 303 305 305 305 305 305 304 304 304 303 302 300 296 297 297 297 295 294 295 295 294 295 295 295 295 295 295 296 297 297 296 295 294 294 295 295 295 295 295 295 295 295 295 295 295 295 295 295 295 295 295 295 295
313 315 315 314 315 315 313 312 311 311 310 310 311 311 310 311 312 310 310 312 311 310 310 309 307 305 304 304 304 304 304 304 304 304 304 304 303 301 299 299 298 298 298 299 300 302 304 305 304 304 304 302 302 301 300 299 298 299 298 297 295 295 295 295 295 295 295 295 294 295 295 295 296 295 295 295 295 294 295 295 294 294 294 294 294 293 294 294 294 293 293 294 294 294 294 294 294
312 313 314 315 314 313 312 311 311 310 309 310 311 310 310 311 310 309 310 310 307 305 306 306 306 305 304 304 303 304 304 304 304 304 304 304 303 301 300 299 299 298 298 298 297 298 300 301 302 302 303 301 300 300 299 297 298 298 296 296 296 296 296 295 296 296 295 295 294 294 294 295 295 295 296 295 294 294 294 294 294 293 293 293 292 292 292 292 292 292 292 292 292 292 292 292 292
312 312 313 314 313 312 311 310 309 309 308 309 310 309 309 310 309 307 308 308 305 303 303 303 305 305 304 304 303 304 304 304 304 304 304 304 303 302 301 300 299 298 298 298 297 297 297 297 298 298 299 298 296 296 296 296 296 295 295 295 296 296 296 296 297 296 295 294 294 294 294 295 295 295 296 295 293 293 293 293 292 292 292 291 291 291 291 291 291 291 291 291 291 291 291 291 292
312 312 313 312 312 311 310 308 308 308 308 309 309 309 309 308 306 305 304 304 303 302 302 303 304 304 304 304 304 304 304 304 304 304 303 302 302 302 301 300 300 299 298 298 297 296 296 295 296 296 296 295 294 294 294 295 295 295 295 294 295 296 296 296 295 295 294 294 293 293 294 294 294 294 294 292 292 292 291 291 290 290 291 290 290 291 291 290 290 290 290 290 290 290 291 291 291
311 311 312 312 311 311 309 307 307 307 308 308 308 307 308 308 305 303 303 302 302 302 302 303 303 304 304 304 303 304 304 303 303 302 301 300 300 300 299 299 299 298 297 297 296 295 295 295 295 295 295 295 294 294 295 295 295 295 294 294 295 295 295 295 294 294 294 293 292 292 292 292 292 292 291 290 290 290 290 290 290 290 291 290 290 291 291 290 290 290 289 290 290 290 290 290 291
311 312 311 310 311 310 308 307 306 306 307 306 306 307 307 306 304 303 302 301 301 301 301 302 303 303 303 303 303 302 302 301 300 299 298 298 298 298 298 298 298 297 297 296 296 295 295 295 295 295 295 295 295 295 295 295 295 295 294 294 294 294 294 293 293 293 292 291 291 291 291 291 290 290 290 290 290 290 290 290 291 291 290 290 291 291 291 290 290 289 289 289 290 290 290 290 290
311 312 311 310 310 309 307 306 306 306 306 305 306 306 305 305 303 303 302 301 301 301 301 301 301 302 301 301 301 300 300 299 299 298 298 298 297 297 297 297 297 296 295 295 295 295 295 295 295 295 295 295 295 295 294 294 294 294 294 294 293 293 293 293 292 292 291 291 291 291 291 291 291 291 291 290 290 290 290 290 290 290 290 290 291 291 291 291 290 289 289 289 290 290 290 290 290
312 312 312 311 310 308 306 306 305 305 305 305 305 305 304 304 304 303 302 301 300 300 300 299 299 299 299 299 299 299 299 298 298 298 297 297 296 296 296 295 295 294 294 294 294 294 294 294 294 294 294 294 294 294 294 294 294 293 293 293 293 292 292 292 291 291 291 291 292 292 292 291 291 291 291 290 290 290 289 289 289 289 289 290 291 291 291 291 290 289 289 290 290 290 290 290 290
312 311 311 310 310 308 307 307 305 305 305 305 305 305 304 304 303 302 302 301 300 299 299 298 298 297 297 297 297 297 297 297 297 296 296 295 295 294 294 294 293 293 292 292 292 292 292 293 293 293 293 293 293 293 293 293 292 292 292 291 291 291 291 291 291 291 291 291 292 292 292 291 291 291 291 291 290 290 289 289 288 288 289 290 290 291 291 290 289 289 290 289 289 289 289 290 290
311 309 309 310 309 308 308 307 306 306 305 305 305 304 302 302 301 301 301 300 299 298 298 297 297 296 296 295 295 295 294 294 294 294 293 293 292 292 292 292 292 291 291 291 290 291 292 292 292 292 292 291 291 291 291 291 291 291 291 290 291 291 291 291 291 291 291 290 291 292 292 291 291 291 291 291 290 290 289 289 288 287 288 289 289 290 290 289 288 288 289 289 289 289 289 290 289
309 308 310 311 309 308 308 307 307 306 305 305 306 305 302 300 300 300 301 300 299 298 297 296 296 295 294 293 293 293 292 292 292 291 290 290 290 290 290 290 290 291 290 290 290 291 291 291 291 291 291 291 291 290 290 290 290 290 290 291 291 291 291 291 291 291 291 290 290 291 292 291 290 291 290 290 290 289 289 288 288 287 287 287 288 288 287 287 286 287 287 287 289 289 290 289 289
309 309 310 311 311 309 307 307 307 306 305 304 307 308 302 299 300 301 301 300 298 298 297 296 295 294 293 292 291 291 291 291 290 290 289 289 289 289 289 289 290 290 290 291 291 291 291 291 291 291 291 291 291 291 290 291 291 291 291 291 291 291 291 291 290 290 290 289 289 290 291 290 289 290 290 290 289 289 288 288 287 286 286 287 287 287 286 286 286 286 286 287 289 289 289 288 288
310 313 313 312 313 310 307 307 307 305 305 304 307 307 301 299 300 300 300 299 298 298 297 296 294 293 292 291 290 290 290 289 289 289 289 289 289 289 289 289 290 290 291 291 291 291 291 291 291 291 291 291 291 291 291 291 291 291 291 291 290 289 289 289 289 289 289 288 288 289 289 289 289 289 289 289 289 288 288 287 287 286 285 286 286 286 285 285 285 285 286 287 288 288 288 288 288
311 315 316 314 314 310 306 307 307 306 306 305 308 306 300 299 299 300 300 299 298 297 296 295 294 293 292 291 290 290 289 289 289 289 289 289 289 290 290 290 290 291 291 291 291 291 291 291 291 291 291 291 291 291 291 291 291 290 289 289 289 288 288 288 287 288 288 288 287 288 289 289 288 288 288 288 288 288 287 286 286 285 285 285 285 285 284 284 284 285 285 286 286 287 287 287 286
314 315 315 314 314 310 308 307 307 308 308 306 307 305 300 299 299 300 299 299 298 297 296 295 294 293 292 291 290 289 289 289 289 289 289 289 290 290 290 291 291 291 291 291 291 291 291 291 291 291 291 291 290 290 290 290 290 289 289 288 288 288 287 287 287 287 287 288 287 287 288 288 288 287 287 287 287 286 286 285 285 284 284 284 284 284 283 283 283 284 284 285 285 285 285 284 284
314 313 313 313 312 311 310 309 307 309 308 304 303 301 299 299 299 299 299 298 297 296 295 294 293 292 291 291 290 289 289 289 289 288 289 290 290 290 290 291 291 291 291 291 291 291 291 291 291 291 290 290 289 289 289 289 288 288 288 288 287 287 287 286 286 287 287 287 286 286 286 287 287 286 286 286 286 285 285 284 284 283 283 283 283 283 282 282 282 282 283 283 283 283 283 283 282
312 312 312 312 311 311 311 309 308 310 308 303 301 300 299 299 299 299 298 298 297 296 295 294 293 292 291 291 290 289 289 289 288 288 289 290 290 291 291 291 291 291 291 291 291 290 290 290 290 290 290 289 288 288 288 287 287 287 287 287 287 286 286 285 285 286 286 286 286 285 284 285 286 285 284 285 284 284 283 283 282 282 282 282 282 282 281 281 281 281 281 281 281 281 281 281 281
310 311 311 312 313 311 309 308 308 310 307 303 301 300 299 299 298 298 298 297 297 296 295 294 293 292 291 291 290 290 289 289 289 289 290 290 291 291 291 291 291 291 291 290 290 290 290 289 289 289 288 288 287 287 287 287 287 287 287 286 286 286 285 285 284 284 285 285 284 284 283 283 284 283 283 282 283 282 282 281 281 281 281 280 280 280 280 280 279 279 279 280 280 280 280 280 280
310 312 312 313 312 310 308 307 308 308 306 302 300 299 299 298 298 298 298 297 296 296 295 294 293 292 291 291 291 290 290 289 289 290 290 291 291 291 291 291 290 290 290 290 290 290 289 288 288 288 287 287 287 286 286 286 286 286 285 285 285 285 285 284 283 283 284 283 283 283 282 281 282 282 281 281 281 281 280 280 280 279 279 279 279 279 278 278 278 278 278 278 278 279 279 279 279
311 312 312 312 310 309 308 308 307 308 307 302 300 299 298 298 297 297 297 297 296 295 295 294 293 292 292 291 291 290 290 290 289 290 290 291 291 291 291 290 290 290 290 290 290 289 289 288 287 287 287 286 286 286 285 285 285 284 284 284 283 283 283 283 282 282 282 282 281 281 281 280 280 280 280 280 280 280 279 279 278 278 278 278 278 277 277 277 277 277 277 277 277 277 278 278 278
312 312 312 311 309 308 309 309 308 307 306 302 300 299 298 297 297 297 297 296 296 295 295 294 293 293 292 292 291 291 290 290 289 289 290 291 291 291 290 290 290 290 289 289 289 288 288 287 287 286 286 286 285 285 285 284 284 283 283 282 282 282 282 281 280 280 280 280 280 279 279 279 279 278 278 278 278 278 278 278 277 277 277 277 276 276 276 276 276 276 275 276 276 276 277 277 277
311 310 309 309 308 308 308 309 309 308 306 302 300 299 298 297 296 296 296 295 295 295 294 294 293 293 293 292 292 291 291 290 290 289 289 290 290 290 290 290 289 289 289 288 288 287 287 287 286 286 286 285 285 284 284 284 283 283 282 282 281 281 280 279 279 278 278 278 278 278 278 278 277 277 277 277 277 277 277 277 276 276 276 276 276 276 275 275 275 275 274 275 275 275 275 275 276
309 308 306 307 307 307 307 307 308 308 306 302 301 300 299 298 297 296 296 296 295 295 294 294 293 293 293 292 292 291 291 290 290 290 289 289 289 290 289 289 288 288 288 287 287 286 286 286 286 285 285 285 284 284 283 283 283 282 282 281 281 280 279 278 278 278 278 277 277 276 276 276 276 276 275 275 276 276 276 275 275 276 276 275 275 275 275 274 274 274 274 274 274 274 274 274 275
308 307 306 305 305 306 306 307 307 307 306 304 304 305 302 299 298 297 297 296 296 295 294 294 293 293 293 292 292 291 291 290 290 290 289 289 289 289 289 288 288 287 287 287 286 286 285 285 285 285 285 284 284 283 283 282 282 282 281 280 280 279 278 277 277 277 277 276 276 275 275 275 275 275 274 275 275 275 274 274 274 275 275 274 274 274 274 273 273 273 273 273 273 273 273 273 274
308 307 306 305 305 306 306 307 307 307 307 308 307 307 304 300 299 298 297 296 296 295 295 295 294 294 293 292 292 292 291 291 290 290 289 289 288 288 289 288 287 287 286 286 286 285 285 285 285 284 284 284 283 283 282 282 281 281 280 279 278 277 277 276 276 276 276 275 275 275 274 274 274 274 274 274 274 274 274 273 273 273 273 273 272 272 272 272 272 272 272 272 272 272 272 272 273
309 308 306 306 305 306 306 307 307 307 307 308 306 306 305 302 300 298 298 297 296 296 295 295 294 294 293 293 292 292 291 291 291 290 290 289 288 288 289 288 287 287 286 286 285 285 285 284 284 284 283 283 282 282 282 281 280 280 278 277 276 276 276 276 275 275 275 275 274 274 274 274 273 273 273 274 274 274 273 273 273 273 272 272 272 271 271 271 271 271 271 271 271 271 271 271 272
309 309 307 306 305 305 306 306 306 307 307 306 305 304 305 302 300 299 298 298 297 296 295 295 294 294 293 293 292 291 291 291 291 290 290 289 288 289 289 288 287 286 286 285 285 285 284 284 284 283 282 282 281 281 281 280 279 278 277 276 276 276 275 275 275 274 274 274 274 274 273 273 273 273 273 273 273 273 273 272 272 272 272 271 271 271 271 270 270 270 270 270 270 270 271 271 271
306 307 307 307 306 305 306 306 306 307 308 305 303 304 305 303 300 299 299 299 298 297 296 295 295 294 293 293 292 292 291 291 291 290 290 289 289 289 288 288 288 286 285 285 284 284 284 284 283 282 282 281 281 280 280 279 278 276 276 275 275 275 275 274 274 274 274 274 273 273 272 272 272 272 272 273 273 272 272 272 271 271 271 271 271 271 270 270 270 270 270 270 270 269 270 270 270
306 307 307 308 307 305 305 306 306 307 307 304 303 303 304 303 301 298 299 298 296 297 296 295 294 294 294 293 293 292 292 291 291 290 290 290 289 289 288 288 287 286 285 284 284 284 283 283 282 281 280 279 279 278 278 277 276 275 274 274 274 274 274 274 273 273 273 273 273 272 272 272 272 272 272 272 272 272 271 271 271 271 270 270 270 270 270 270 270 270 270 270 269 269 269 269 269
306 306 305 306 307 305 304 306 306 306 306 303 302 303 303 304 302 298 297 296 296 296 297 296 295 294 294 294 293 292 292 291 291 291 290 290 289 289 288 288 287 286 285 284 283 283 283 282 281 281 279 278 277 277 276 276 275 274 274 273 273 273 273 273 272 272 272 272 272 272 272 272 272 271 271 271 271 271 271 271 270 270 270 270 270 270 270 270 270 270 270 269 269 269 269 268 268
304 303 303 305 306 303 303 305 304 304 304 302 302 303 303 302 300 297 297 296 295 296 296 296 295 294 294 293 293 292 292 291 291 291 290 290 289 288 288 288 287 286 285 284 283 282 282 281 281 280 279 277 276 276 275 275 274 274 273 273 272 273 272 272 272 272 271 271 271 271 271 271 270 270 270 270 270 270 270 270 270 270 269 269 269 269 269 269 269 269 269 269 269 268 268 268 268
302 301 302 304 304 302 302 303 302 302 303 302 302 303 302 300 298 297 296 295 295 295 295 295 295 294 294 293 293 292 292 292 291 290 290 289 288 288 288 287 287 286 284 283 282 281 281 280 280 279 278 276 275 275 274 274 273 273 272 272 272 272 271 271 271 271 271 270 270 270 270 270 269 269 269 269 269 269 269 269 269 269 269 269 268 268 268 268 268 268 268 268 268 268 267 267 267
303 301 301 304 303 301 302 303 302 303 302 302 303 302 302 302 299 296 295 295 295 294 294 294 294 294 293 293 293 292 292 291 291 290 289 289 288 287 287 287 286 285 283 282 281 281 280 279 279 278 277 275 275 274 273 273 273 272 272 271 271 271 271 270 270 270 270 269 269 269 269 269 269 269 268 268 268 268 269 269 268 268 268 268 268 267 267 267 267 267 267 267 267 267 267 267 267
301 300 301 303 301 301 303 303 302 303 303 303 303 300 299 299 296 294 294 294 294 294 294 293 293 293 293 292 292 292 292 291 291 290 289 288 287 286 286 285 285 284 282 281 280 279 278 278 277 276 275 274 274 273 273 272 272 272 271 271 271 270 270 270 269 269 269 269 269 268 268 268 268 268 268 268 268 268 268 268 268 267 267 267 267 267 267 267 266 266 266 266 266 266 266 266 266
300 300 300 300 300 300 302 303 303 302 302 302 301 299 297 297 296 294 294 294 293 293 293 293 293 293 293 293 293 292 292 291 290 289 289 287 286 286 285 284 284 282 281 280 279 278 277 276 276 275 274 274 273 273 272 272 272 271 271 271 270 270 270 269 269 269 269 268 268 268 268 268 268 268 267 267 267 267 267 267 267 267 266 266 266 266 266 266 266 266 266 265 265 265 265 265 265
299 300 300 301 301 300 301 303 301 299 299 299 299 299 299 300 299 295 293 294 294 293 293 293 294 294 293 293 292 292 291 291 290 289 288 287 286 285 285 284 282 281 280 279 278 277 276 276 275 275 274 273 273 272 272 271 271 271 270 270 270 270 269 269 269 268 268 268 268 268 267 267 267 267 267 267 267 267 267 266 266 266 266 266 266 266 265 265 265 265 265 265 265 265 265 265 265
300 300 300 301 302 301 301 301 299 298 299 298 298 298 299 301 300 295 294 295 294 294 294 294 294 293 293 292 292 291 291 290 289 288 288 287 286 285 284 283 282 281 280 279 278 278 277 276 275 275 274 273 272 272 271 271 271 270 270 270 269 269 269 268 268 268 268 267 267 267 267 267 267 267 267 266 266 266 266 266 266 266 265 265 265 265 265 265 265 265 265 265 265 265 265 265 265
300 300 300 300 301 301 300 300 298 298 298 297 298 298 298 299 299 297 296 296 295 295 294 294 293 293 292 292 291 290 290 289 289 288 287 287 286 285 284 283 282 281 280 279 279 278 277 276 275 275 273 273 272 271 271 271 270 270 270 269 269 269 268 268 268 267 267 267 267 267 267 266 266 266 266 266 266 266 265 265 265 265 265 265 265 265 264 264 264 264 264 264 264 264 264 264 264
299 300 301 300 300 300 301 300 299 298 297 296 297 297 297 298 297 297 296 295 295 295 294 293 292 292 292 291 290 290 290 289 288 287 287 286 285 285 284 283 282 281 280 279 279 278 277 276 275 274 273 272 272 271 271 270 270 269 269 269 269 268 268 268 267 267 267 267 266 266 266 266 266 266 265 265 265 265 265 265 265 265 265 265 264 264 264 264 264 264 264 264 264 264 264 263 263
298 298 299 299 299 300 300 300 298 298 296 296 297 297 297 297 296 296 296 295 294 294 293 292 292 292 291 291 290 290 289 289 288 287 286 285 285 284 283 282 281 281 280 279 279 277 276 275 274 273 272 272 271 271 270 270 270 269 269 269 268 268 268 267 267 267 267 266 266 266 266 266 265 265 265 265 265 265 264 264 264 264 264 264 264 264 264 263 263 263 263 263 263 263 263 263 263
Wind_Speed
1 1 2 2 4 3 3 5 4 2 3 4 5 5 3 2 2 2 1 5 4 4 6 7 5 2 3 2 2 7 10 5 1 1 1 7 10 12 15 15 16 14 12 8 8 11 10 8 8 8 7 6 6 5 6 7 8 9 9 10 10 10 10 9 9 10 10 9 9 8 8 8 7 9 10 10 11 11 11 11 11 11 11 11 11 11 11 11 11 11 11 11 12 11 12 11 9
2 4 4 2 5 2 6 7 2 3 3 5 5 3 3 3 3 5 6 6 4 4 6 6 4 3 3 3 0 3 10 8 5 7 10 13 12 15 16 16 19 14 13 8 6 8 9 8 9 8 7 8 8 8 9 10 10 11 11 11 10 10 10 10 10 11 11 11 11 10 10 9 8 9 10 10 11 11 11 11 11 11 11 11 11 11 11 11 11 11 11 11 12 12 12 11 9
3 4 5 1 4 4 6 4 2 4 4 6 3 2 5 3 4 6 6 6 7 7 6 5 4 4 2 1 1 2 6 7 8 8 12 11 10 17 17 17 20 13 10 6 5 6 9 9 9 9 9 10 11 11 11 11 11 11 11 10 9 10 11 11 10 11 11 11 11 11 11 10 10 10 11 11 11 11 11 11 11 11 11 11 11 11 11 11 11 11 11 12 12 12 12 11 10
3 4 5 3 4 4 4 2 2 4 5 5 2 4 7 3 7 5 7 7 7 7 5 3 3 3 2 1 3 5 8 8 8 5 10 9 6 15 17 20 20 11 7 5 5 6 8 9 11 11 11 11 12 11 11 12 11 11 10 9 9 10 10 11 10 10 10 10 11 11 11 11 11 11 11 11 11 11 11 11 11 11 11 11 11 11 11 11 11 11 11 11 12 12 11 11 12
3 3 4 4 3 2 2 2 3 5 5 4 1 7 4 8 7 5 7 7 7 5 4 3 3 3 2 4 3 4 7 7 7 4 9 9 7 13 17 24 22 8 7 6 5 6 8 11 12 12 12 12 12 11 12 12 11 10 9 10 10 10 10 10 10 10 10 10 10 10 11 11 11 11 11 11 11 11 11 11 11 11 11 11 11 11 11 11 11 11 11 12 12 11 11 11 13
2 2 2 3 4 3 3 3 4 5 6 5 4 5 2 8 7 8 8 6 6 4 4 3 2 3 4 6 5 6 6 5 8 4 6 9 10 14 16 25 24 10 6 5 7 8 8 12 13 12 12 12 12 12 12 11 11 11 10 10 11 11 11 10 10 11 10 10 10 10 10 10 11 11 11 10 10 10 10 11 11 11 11 11 11 11 10 10 10 10 11 11 11 11 10 11 13
2 4 5 5 7 5 3 5 5 5 6 6 6 2 6 8 6 8 7 5 4 4 5 4 2 2 4 7 6 7 7 7 7 4 4 8 11 15 17 24 23 17 14 11 10 8 9 13 13 13 13 13 12 12 11 11 11 11 11 10 10 10 10 10 10 10 10 10 10 10 9 10 10 9 10 9 10 10 10 11 11 10 9 9 9 9 9 9 9 8 9 10 9 10 10 10 11
4 8 7 4 4 4 4 5 5 5 5 5 4 4 9 7 5 3 3 4 3 4 7 5 3 2 2 5 7 4 5 5 3 4 5 7 12 15 18 22 21 20 18 14 10 7 11 12 13 13 13 12 12 12 11 11 11 10 10 9 8 7 7 6 6 6 6 6 7 7 7 7 7 7 7 8 8 9 10 10 10 9 9 9 9 9 9 9 9 9 9 9 9 10 10 10 11
6 9 6 3 2 3 4 5 5 6 7 6 1 10 12 8 6 3 2 1 4 6 7 7 3 2 3 7 11 5 4 5 3 5 6 7 13 16 18 19 19 18 16 15 10 7 11 12 13 13 12 12 12 12 11 11 10 9 9 8 7 6 6 5 4 4 4 4 4 4 5 6 6 6 6 7 7 8 9 9 10 11 10 10 10 10 10 10 10 10 10 10 10 11 11 11 11
8 9 4 2 2 4 4 5 4 5 7 5 2 11 12 9 6 4 4 3 5 8 7 7 3 1 2 9 13 5 5 6 4 6 7 9 14 17 18 17 17 17 15 15 9 8 12 13 13 13 13 12 12 12 11 10 9 8 7 6 6 6 5 5 4 4 4 4 4 5 6 6 7 7 7 8 8 9 10 10 11 12 11 11 12 11 11 11 11 11 10 10 11 11 11 11 11
7 9 4 2 3 4 4 5 4 5 4 3 9 13 12 9 6 4 4 4 5 8 6 4 2 0 1 9 11 6 7 7 4 7 9 11 16 17 17 16 16 14 12 12 9 9 13 13 14 13 13 12 11 10 9 8 7 6 6 5 5 4 4 3 3 3 4 4 5 6 6 7 8 9 9 9 10 11 11 12 13 13 13 13 13 13 13 13 12 11 11 11 11 11 11 11 11
5 4 4 2 3 4 4 5 4 5 5 7 8 11 10 8 7 6 5 4 3 5 4 1 2 1 1 6 8 8 11 8 6 7 9 13 16 16 16 16 15 12 11 11 9 10 13 13 13 13 13 12 10 9 7 6 5 5 4 4 3 3 2 2 2 3 4 4 5 6 8 9 10 10 11 11 11 12 13 14 15 16 16 16 15 15 16 16 15 13 12 11 11 12 11 11 11
5 4 2 2 3 4 5 5 4 5 5 6 5 7 7 8 9 8 8 5 2 2 3 2 3 3 2 8 10 12 12 9 7 7 11 15 17 15 15 15 15 15 13 10 8 10 12 12 12 13 11 10 8 7 6 5 4 3 3 2 1 1 1 1 2 3 4 5 7 8 10 11 12 13 13 13 14 14 14 15 17 18 18 18 17 17 17 17 17 16 14 13 12 12 12 12 11
5 7 4 2 3 4 5 4 4 4 1 4 4 5 7 8 8 7 7 5 5 5 5 5 1 3 3 8 10 12 12 11 9 10 14 16 16 15 15 16 16 16 14 10 9 10 10 10 11 10 9 7 6 5 4 3 3 2 2 1 1 0 1 2 3 4 5 7 8 10 11 13 14 15 14 15 16 16 17 17 18 18 18 19 18 17 17 17 18 18 17 16 14 13 13 13 12
7 9 5 2 4 4 4 4 3 2 2 4 2 4 6 8 6 5 5 5 7 5 6 4 1 2 2 5 8 13 13 12 11 13 15 16 17 16 16 17 17 16 15 13 12 11 9 7 7 7 6 3 3 1 1 2 2 1 1 1 1 2 2 2 3 4 6 7 9 10 12 13 15 15 15 16 18 19 20 20 20 19 19 19 19 18 17 17 18 18 18 18 16 15 14 14 13
5 6 3 2 4 4 4 4 2 1 2 3 3 6 5 7 7 5 3 3 3 3 4 4 4 4 5 11 12 13 11 12 13 15 16 16 16 16 16 16 16 17 15 14 14 12 10 8 5 6 5 4 5 5 4 0 1 0 2 2 2 2 2 4 5 6 7 8 8 10 12 14 15 16 18 20 22 23 23 22 21 20 20 19 19 19 18 18 18 18 18 18 17 16 15 15 14
3 3 2 2 4 4 4 3 1 1 2 4 5 10 6 4 5 3 3 0 3 3 7 7 5 3 7 12 11 10 9 13 15 16 16 15 15 15 13 13 15 16 15 14 14 12 10 8 6 8 7 4 6 3 2 2 2 3 2 3 3 3 3 5 7 7 8 9 10 10 12 13 13 12 15 18 21 23 24 23 21 21 20 20 19 19 19 19 18 18 18 18 18 17 16 16 15
4 2 3 3 5 3 3 4 5 3 3 4 6 9 6 3 4 3 4 2 3 5 9 8 5 5 8 9 7 7 9 13 15 15 15 13 12 13 12 11 13 15 15 13 12 13 11 8 6 6 6 6 7 5 3 4 5 6 6 7 8 7 7 8 8 8 9 10 10 10 10 9 8 9 12 15 18 20 21 21 21 21 21 20 19 20 20 19 18 17 17 16 16 17 16 15 16
6 2 3 4 4 2 3 6 7 6 5 7 7 9 6 7 6 4 3 4 10 8 7 10 9 10 9 7 6 7 10 12 13 12 12 10 11 12 11 10 10 12 12 11 11 11 11 10 7 6 6 6 4 2 1 4 5 3 5 8 9 8 8 9 10 9 9 9 9 8 8 7 8 10 12 15 16 17 19 20 20 21 22 23 22 22 21 20 19 18 18 16 15 16 15 14 15
8 5 3 3 1 4 7 9 9 10 7 8 7 7 6 9 9 7 5 7 17 13 11 16 12 12 9 8 8 10 10 11 12 10 10 10 10 10 9 9 7 8 9 8 8 9 9 8 6 6 7 7 5 2 1 2 1 2 3 5 6 6 6 6 7 9 9 7 7 7 8 8 9 10 11 15 16 16 16 18 18 19 21 23 23 22 21 21 20 19 18 18 17 18 18 18 17
6 5 4 4 2 4 8 12 10 9 8 6 5 6 6 10 14 16 12 7 10 13 14 14 11 11 10 9 10 11 11 12 11 10 10 9 9 9 9 10 9 9 9 6 5 6 6 5 3 2 3 5 4 2 1 3 4 3 2 2 2 4 4 3 2 8 8 7 7 7 7 8 8 8 9 13 15 14 13 13 15 16 17 18 20 19 19 19 19 18 18 18 19 19 20 20 20
4 4 8 11 5 3 8 11 9 8 7 5 5 6 5 9 18 24 22 10 6 12 13 10 8 9 9 10 11 12 12 12 11 10 11 11 11 12 12 12 12 12 10 8 7 6 6 4 3 2 1 4 4 2 2 3 4 3 4 3 0 1 3 3 4 7 7 7 7 7 5 5 5 5 7 10 12 12 13 13 15 15 14 16 17 16 17 18 18 19 19 19 20 20 21 22 22
3 4 10 10 3 4 7 9 8 8 8 8 7 6 5 12 18 24 25 15 11 12 13 13 11 10 11 13 14 14 15 14 14 15 15 15 16 15 13 13 13 12 11 11 10 9 7 5 2 1 1 2 3 3 2 2 3 4 4 3 3 4 5 5 7 6 7 8 8 7 6 5 5 6 9 11 11 13 14 15 16 16 15 17 17 16 17 18 19 20 22 21 21 21 22 22 23
3 4 8 3 4 5 7 8 7 8 8 9 7 5 10 16 15 20 24 17 15 15 16 18 18 18 18 19 20 20 20 19 19 20 19 19 18 17 16 16 15 15 15 15 13 12 12 11 9 7 8 9 8 7 5 5 7 8 9 9 9 9 9 8 7 6 7 9 9 9 8 8 9 10 12 13 14 15 16 15 14 15 16 17 17 16 18 19 19 23 24 23 22 22 22 23 23
5 6 6 2 4 6 7 6 7 7 7 6 5 8 18 21 19 23 20 16 18 18 19 21 23 25 24 24 23 21 21 20 20 21 21 20 20 20 20 19 18 18 20 20 19 19 18 18 17 16 15 14 13 12 11 11 11 11 11 11 11 10 9 9 8 8 9 9 10 11 11 12 13 15 15 17 18 18 19 16 14 16 17 15 15 17 19 20 22 26 26 22 22 23 24 24 23
2 5 4 4 3 8 6 5 6 6 6 4 6 14 18 17 16 19 17 16 19 20 23 24 26 27 26 26 24 23 22 21 21 21 22 21 22 23 23 23 22 22 22 21 20 20 19 18 19 18 16 15 14 14 13 13 12 11 10 10 9 8 8 7 8 11 13 13 13 14 16 18 18 19 20 21 22 22 23 19 17 19 18 15 14 17 20 21 25 29 24 21 24 26 27 26 24
4 6 6 6 1 7 4 4 6 6 6 4 9 15 19 19 14 10 13 16 19 22 25 25 27 28 26 27 27 26 26 26 25 24 24 23 22 22 22 22 22 22 21 20 20 18 17 16 17 18 17 15 13 12 12 12 11 10 9 9 9 9 9 10 12 14 16 18 19 19 20 22 23 23 24 25 26 26 26 23 21 19 17 15 14 17 21 24 27 27 23 21 24 27 27 25 24
4 5 4 7 4 5 3 4 6 6 4 7 17 19 19 21 14 9 10 15 20 24 26 25 27 28 26 27 27 27 27 27 26 26 27 26 24 23 21 20 20 20 19 20 19 17 16 15 16 16 16 15 14 13 12 11 11 11 10 11 12 12 13 15 17 19 20 21 23 24 24 25 26 27 27 28 29 29 27 25 23 19 16 16 17 19 23 25 26 23 22 23 24 25 23 22 24
3 2 3 5 5 6 5 5 5 4 3 8 17 15 14 15 11 12 10 16 22 24 24 25 26 26 27 27 27 27 26 25 26 27 27 26 25 23 22 21 18 18 18 18 16 15 16 16 16 15 14 14 14 14 13 13 13 13 14 14 15 16 17 19 21 22 23 24 25 27 28 28 29 30 30 30 30 29 27 25 23 20 18 20 21 22 24 25 24 22 23 23 21 21 22 24 26
3 3 3 4 3 4 5 7 4 4 5 6 7 4 7 10 13 14 13 18 23 23 23 23 24 25 26 27 28 28 26 26 26 26 25 25 25 24 24 22 20 20 19 17 16 16 18 17 17 16 15 14 14 14 14 15 15 16 16 17 19 20 20 22 23 24 25 26 27 29 30 30 31 31 31 30 30 28 27 25 23 21 21 23 24 24 24 24 23 22 22 20 19 21 25 26 25
1 1 2 2 2 3 5 6 2 2 5 7 3 4 5 9 13 14 16 20 22 22 21 21 23 23 24 26 27 27 26 25 25 24 24 24 23 23 23 22 21 21 21 19 19 18 18 17 17 16 15 15 15 15 15 15 16 18 19 20 21 23 24 25 26 26 27 27 28 31 31 31 31 31 30 30 29 28 26 25 23 22 22 25 26 25 24 23 22 21 19 19 21 22 24 24 23
2 0 0 1 3 4 4 7 6 3 3 7 4 4 6 9 13 14 17 19 21 22 21 21 22 21 22 23 24 25 25 24 23 23 23 23 23 22 22 22 21 21 20 20 19 17 17 16 16 15 15 15 15 16 16 17 18 20 21 22 23 24 25 27 27 28 29 29 30 31 32 31 31 31 30 30 29 28 27 25 23 22 23 25 25 25 23 21 20 20 20 20 22 24 25 26 27
1 0 3 3 3 3 2 6 8 5 1 4 7 6 5 8 12 15 17 18 20 21 20 20 20 20 20 20 21 22 22 23 23 22 22 23 23 22 22 21 20 20 19 18 17 16 16 16 15 16 17 18 18 19 20 21 22 23 24 25 26 26 27 28 28 29 30 30 30 31 32 32 31 31 30 29 28 27 26 24 23 22 23 24 25 24 22 20 19 21 23 22 24 26 28 29 29
3 3 4 5 4 1 2 3 7 7 8 11 13 11 8 8 12 16 17 17 19 20 19 19 19 19 20 20 20 20 21 21 21 20 20 22 21 21 20 19 18 18 18 17 17 17 17 18 18 19 20 21 22 24 24 25 26 26 27 27 28 28 28 28 28 30 31 30 30 30 31 31 30 30 30 30 28 26 26 24 23 23 24 25 25 24 23 21 21 23 25 25 26 27 28 28 28
5 5 3 4 5 4 4 4 5 7 12 13 12 12 11 9 11 15 16 16 18 19 18 18 18 18 18 19 19 19 20 20 18 18 18 19 19 19 18 17 17 17 17 17 17 18 19 20 21 22 23 25 26 27 27 28 29 29 30 30 30 30 29 29 29 30 31 30 30 29 30 30 30 29 29 30 28 27 26 24 24 23 24 26 26 25 23 22 22 24 25 27 27 27 27 26 25
5 5 3 4 4 2 5 4 3 7 10 11 10 11 10 9 9 13 15 15 17 17 16 17 16 17 17 17 18 18 19 18 17 17 18 18 17 17 16 16 16 16 17 17 18 20 22 23 25 25 26 28 29 29 30 30 31 31 32 32 32 31 30 30 29 30 30 29 28 28 28 29 29 28 27 29 28 27 26 26 25 24 25 25 25 25 24 22 22 23 25 27 28 28 26 25 24
5 4 4 4 2 2 5 4 3 6 8 8 11 12 11 10 8 11 14 14 15 15 15 15 15 16 16 16 17 16 17 16 15 15 16 15 15 15 15 15 16 16 18 20 20 23 24 26 27 28 28 29 30 31 31 32 32 33 34 34 34 32 31 31 30 30 30 28 27 27 27 28 29 28 26 27 27 26 26 26 25 25 25 25 25 25 24 23 22 23 25 26 27 28 27 26 24
5 4 5 2 3 3 4 5 2 4 6 6 11 13 11 10 8 10 13 12 12 13 13 14 14 15 15 15 15 15 14 13 12 13 13 12 13 13 13 14 16 17 20 22 23 25 26 27 28 29 29 30 30 31 32 32 32 33 34 34 34 34 33 32 31 30 29 28 28 27 27 27 28 28 27 27 28 27 25 25 25 25 25 25 25 25 24 24 22 22 24 27 27 28 28 27 24
4 3 4 3 5 4 3 4 2 3 5 5 10 12 9 9 8 10 12 11 12 13 13 13 13 13 13 13 13 13 12 12 11 10 10 10 10 11 13 14 17 19 21 23 25 26 28 29 29 29 29 30 30 31 31 31 31 32 33 34 34 34 34 33 30 29 29 29 28 28 27 26 27 28 27 27 28 27 27 26 26 25 25 24 24 25 25 24 23 22 23 26 28 28 28 27 24
1 4 4 3 4 3 0 1 1 3 5 8 11 10 7 7 7 8 10 11 12 12 12 12 12 12 12 11 11 11 10 10 9 8 7 7 8 11 13 16 18 21 22 24 26 27 28 29 29 28 29 29 29 30 30 30 30 31 33 33 33 33 32 30 28 28 29 29 28 27 27 26 25 25 25 25 26 27 28 29 29 28 25 23 24 24 24 23 22 21 21 24 27 29 29 28 25
3 5 4 2 4 3 2 3 3 4 8 11 11 7 4 5 5 5 7 10 10 10 10 11 10 10 10 10 10 9 9 9 8 7 6 5 8 11 14 17 19 22 23 25 26 27 27 28 28 28 28 28 28 29 30 30 31 33 34 35 35 33 31 28 27 28 29 28 28 26 26 25 24 23 22 21 23 26 28 30 30 29 27 26 25 25 24 23 21 20 21 24 26 27 28 28 27
1 3 2 3 4 5 5 5 4 1 5 7 7 3 2 3 5 4 4 6 7 8 9 9 9 8 8 8 8 8 7 7 6 5 4 3 6 10 13 17 20 22 24 25 26 26 26 27 27 28 29 29 29 29 30 31 33 35 36 37 36 34 32 28 26 28 28 27 26 25 25 23 22 22 19 17 20 25 27 28 28 28 29 29 28 27 26 24 21 21 23 25 25 25 26 28 28
2 0 1 2 3 5 6 5 3 1 2 5 6 2 2 3 4 5 4 4 4 6 7 7 7 7 6 6 6 6 6 5 4 3 2 2 5 9 12 17 21 23 24 25 26 26 26 27 27 28 28 29 29 29 30 32 34 36 36 35 33 31 29 27 26 27 27 26 25 24 23 22 20 19 15 15 20 23 25 26 27 28 30 30 30 28 26 24 23 24 24 24 25 25 26 27 29
3 2 1 3 4 5 5 4 3 2 1 4 3 2 3 3 2 5 6 5 5 4 4 5 5 5 5 5 5 5 4 3 2 0 1 3 7 11 12 16 20 23 25 26 26 26 26 26 27 27 27 28 29 29 31 33 35 36 35 32 29 28 27 26 26 26 26 25 24 23 22 21 19 17 15 15 18 20 22 24 26 29 30 31 29 27 25 25 25 25 24 23 25 26 27 27 28
4 4 5 5 4 5 5 3 4 3 3 3 3 4 2 3 3 6 6 5 5 4 4 4 5 6 5 5 4 4 3 2 1 2 4 6 10 14 15 17 20 24 26 27 27 26 26 25 25 26 26 27 29 30 32 34 35 35 33 29 28 27 25 25 26 26 25 24 24 23 22 21 20 18 16 14 15 19 22 24 26 29 30 30 29 27 26 26 26 25 25 25 26 26 26 26 26
7 9 10 7 4 4 4 3 5 3 3 2 5 5 2 2 3 4 6 3 2 3 4 5 6 6 7 6 5 4 3 3 4 4 6 8 10 16 19 19 21 25 26 26 26 25 25 25 24 25 26 28 30 31 33 34 34 32 28 26 25 25 25 25 25 25 25 24 24 23 21 22 22 20 16 13 16 19 21 24 27 28 29 29 29 29 29 28 28 28 28 27 26 26 26 24 24
10 8 9 6 3 3 4 3 4 1 2 1 4 5 2 2 3 1 2 2 0 2 3 5 6 7 8 7 7 6 5 6 7 7 7 8 10 15 19 20 21 24 25 26 26 25 24 25 24 25 27 28 30 32 34 35 33 29 25 23 23 24 24 24 24 24 24 23 23 22 21 22 22 20 16 14 16 19 22 26 27 28 29 29 29 29 30 30 30 30 30 30 29 27 25 24 25
8 5 6 5 2 1 3 2 2 1 1 1 3 6 4 2 2 2 2 2 2 3 3 5 8 8 8 8 7 7 7 7 8 8 9 11 11 13 18 21 22 23 24 26 26 25 24 25 24 26 27 27 29 32 34 35 32 28 24 21 22 23 23 23 23 22 22 22 22 21 22 22 21 20 18 16 16 19 23 27 28 30 31 30 30 29 29 29 30 30 31 30 29 28 27 26 26
6 5 6 5 3 2 2 2 1 2 2 1 4 6 3 2 1 3 5 3 3 3 3 2 7 8 8 7 7 8 8 8 9 10 11 13 14 15 18 22 23 23 24 26 26 25 24 24 24 26 28 27 29 33 34 34 32 28 24 19 21 24 24 23 22 22 21 21 21 22 22 22 21 21 19 17 17 19 23 27 29 31 31 31 29 29 28 28 29 30 30 29 29 28 27 26 26
6 5 5 3 3 3 2 3 3 2 4 5 4 3 0 1 1 4 5 4 4 3 2 1 4 5 5 6 7 8 9 9 10 11 13 14 16 18 20 22 23 23 24 26 25 24 23 24 25 28 29 28 30 32 33 32 30 27 23 19 20 24 25 24 23 22 21 21 22 23 22 21 21 21 21 20 18 19 23 27 30 31 31 30 29 28 28 28 28 29 29 29 28 28 27 27 27
4 4 4 3 3 2 1 1 2 2 5 7 3 3 0 2 2 4 6 6 6 5 3 2 3 5 5 7 9 10 11 10 11 13 14 16 18 20 21 22 23 23 24 24 23 23 23 24 26 29 30 30 30 31 31 31 29 27 24 20 20 23 24 24 23 21 21 21 22 22 22 21 21 21 21 21 20 20 24 27 29 30 30 29 28 28 28 28 28 28 29 29 29 28 28 27 27
3 4 4 3 2 1 2 2 3 3 4 4 0 2 1 1 2 4 7 7 8 7 7 7 7 8 7 8 11 11 11 11 13 13 14 17 20 21 22 22 22 23 22 22 22 22 22 24 26 28 30 30 30 30 30 30 28 26 24 21 21 23 24 24 23 22 21 22 22 22 22 22 21 22 22 22 22 23 25 27 28 28 27 28 28 28 29 29 28 29 29 29 29 28 28 28 28
3 4 3 2 2 1 1 3 3 2 2 2 1 0 1 1 2 4 6 6 7 8 9 10 10 9 9 11 12 9 10 11 12 13 14 18 22 22 20 19 20 19 19 19 20 19 20 23 25 27 30 30 29 29 29 28 27 26 24 21 21 23 24 24 23 23 23 22 22 22 22 22 22 22 22 22 23 24 26 27 27 27 26 27 28 28 28 29 29 29 29 28 28 28 28 29 29
1 1 3 4 1 3 1 2 3 3 2 3 3 3 1 2 2 3 5 6 6 8 10 13 12 10 10 11 9 9 11 12 14 16 17 19 20 20 18 16 14 14 16 17 18 19 21 22 24 28 32 31 29 29 28 27 27 25 23 21 21 23 23 23 23 23 23 22 22 23 23 22 22 22 23 23 24 25 26 26 27 27 27 26 27 28 29 29 29 29 28 28 28 27 27 29 29
4 2 3 2 2 1 2 1 1 2 3 4 4 4 2 3 1 4 7 7 6 5 6 7 5 6 7 9 9 11 12 14 17 19 19 20 19 17 16 15 14 14 15 16 17 21 24 23 25 30 33 32 30 29 27 27 27 26 23 21 22 23 23 23 23 23 22 22 23 23 22 23 23 23 23 24 25 26 26 26 27 27 26 27 28 29 29 29 29 29 28 28 29 28 28 30 30
4 2 2 1 1 2 1 0 1 1 2 3 4 4 2 2 1 4 6 5 4 3 2 2 3 6 8 9 10 12 14 15 17 18 19 19 18 16 16 17 17 17 16 16 17 22 24 24 27 32 32 32 30 27 26 27 27 26 23 22 22 23 23 24 24 23 22 23 23 22 22 23 23 24 24 24 25 25 26 27 27 26 26 27 28 29 28 28 30 29 29 29 30 29 30 32 33
5 3 3 3 2 1 1 0 1 0 2 2 3 5 2 0 1 3 5 4 3 3 3 2 4 7 9 10 12 13 15 16 19 20 21 20 19 17 16 16 17 16 17 18 20 24 25 26 30 32 32 30 28 26 26 27 27 26 23 22 22 23 24 24 24 23 23 23 23 23 23 24 24 24 24 24 24 25 26 27 27 27 27 28 29 29 29 29 30 30 30 30 31 31 32 34 34
3 2 2 2 2 2 1 1 1 1 1 2 3 5 4 2 1 3 4 5 5 5 4 3 6 9 10 12 13 14 16 19 22 22 22 21 20 20 17 14 15 16 18 20 23 25 25 27 31 31 30 28 27 27 27 27 27 25 24 23 23 24 24 24 24 24 24 23 23 24 24 25 25 25 23 24 25 26 26 27 28 28 29 30 31 31 30 30 30 31 31 32 32 33 34 35 35
Wind_Direction
179 184 138 186 161 128 218 227 248 226 225 257 252 260 282 348 54 359 59 105 82 56 60 74 68 59 81 65 80 58 47 33 4 38 156 139 153 157 140 148 141 155 192 183 171 164 164 164 148 136 128 118 111 109 98 98 95 96 94 87 88 87 87 86 83 81 80 77 76 76 73 68 71 72 60 54 53 53 53 51 51 49 48 47 46 45 44 44 43 43 42 41 39 26 24 49 55
175 149 127 177 159 172 246 206 238 278 230 257 247 265 312 337 58 43 51 77 75 103 96 89 83 68 75 61 37 53 55 51 68 106 135 145 162 154 146 149 138 168 201 190 191 176 187 177 139 132 125 117 112 108 104 104 99 98 94 92 93 90 89 87 85 82 80 77 76 74 72 67 66 68 59 55 54 53 52 50 49 48 47 45 44 44 42 42 42 40 40 39 39 33 26 45 53
167 145 135 176 177 224 274 203 218 282 256 263 259 350 288 294 73 71 68 81 97 111 102 94 88 62 20 355 1 42 83 61 58 101 129 143 165 152 153 144 138 181 202 191 214 185 197 177 139 128 123 119 114 111 109 106 102 99 96 99 97 92 89 87 87 82 80 77 74 72 70 67 65 65 60 58 55 53 51 50 50 48 46 44 43 42 40 39 39 37 37 36 36 34 28 43 52
165 149 153 216 237 218 264 226 227 265 263 272 326 301 269 116 101 100 92 94 106 107 92 102 96 72 18 28 26 54 101 80 57 95 122 129 167 158 156 134 137 191 204 222 249 195 190 156 134 128 124 120 117 115 111 108 104 101 100 101 94 93 92 89 88 82 80 76 74 71 69 67 65 64 61 59 55 53 51 49 48 47 45 43 42 40 38 36 36 35 35 34 34 34 28 40 55
140 148 166 226 258 211 241 241 238 243 256 274 273 265 272 92 108 109 107 107 106 105 103 131 100 104 63 50 22 53 101 91 82 112 135 138 170 165 154 137 138 179 216 245 240 187 169 139 133 128 125 122 119 118 114 112 108 104 100 97 93 94 94 91 88 82 79 75 73 69 68 66 63 62 60 58 54 52 50 48 46 45 43 40 40 37 35 32 31 30 30 31 31 31 25 35 53
159 184 219 247 252 278 276 243 243 241 252 261 255 250 85 81 101 105 116 113 101 125 121 116 103 116 95 84 70 77 106 121 114 120 149 144 158 163 153 141 137 148 191 202 192 184 153 135 132 128 126 122 119 118 116 113 110 106 100 96 95 94 92 90 87 83 79 76 72 67 66 64 62 60 58 56 52 50 47 46 45 43 42 40 37 33 32 29 28 27 26 27 26 25 20 32 48
222 229 216 215 231 244 252 249 255 259 252 239 267 287 102 96 113 123 137 128 111 149 131 115 145 134 109 121 92 75 113 144 142 128 138 143 153 164 157 146 144 154 155 153 180 183 144 135 131 129 126 122 121 119 118 116 113 108 104 100 98 97 93 89 85 82 79 76 73 69 66 61 57 52 49 47 46 47 44 43 41 37 37 37 31 25 25 23 23 24 23 23 21 19 18 25 36
212 240 234 227 232 213 220 250 251 261 267 240 271 59 100 102 97 115 155 149 154 155 146 142 147 129 102 112 95 89 135 142 162 125 125 143 153 163 156 153 157 157 150 157 178 159 137 135 130 130 125 125 123 120 118 114 113 109 105 101 100 99 94 89 82 78 74 68 65 62 54 44 35 29 26 23 28 30 34 36 27 23 26 25 22 20 18 17 18 19 19 20 19 18 18 18 21
234 243 258 269 270 259 241 250 246 253 261 247 213 92 96 86 68 14 341 114 130 123 134 147 152 126 96 91 100 112 127 126 141 126 130 139 150 156 150 153 156 151 160 178 182 143 138 135 131 131 127 127 122 121 118 113 116 114 109 105 102 97 92 84 72 64 54 46 37 31 22 13 8 7 6 4 4 4 8 9 4 9 14 12 11 10 9 9 10 11 11 12 13 12 10 11 11
241 223 261 299 245 270 262 258 258 251 246 244 50 79 83 68 51 15 354 357 85 94 100 126 146 169 120 102 109 108 106 131 146 138 138 139 150 148 143 148 148 154 175 185 182 152 142 138 133 130 128 128 124 126 125 123 125 122 117 111 105 99 92 79 68 53 41 32 19 13 5 359 356 356 357 357 357 354 353 351 350 354 357 358 360 355 354 354 356 0 358 358 358 360 360 359 1
250 203 225 308 250 256 257 260 259 261 266 64 48 50 60 56 29 15 19 359 64 92 100 115 111 309 136 98 104 104 103 127 153 145 140 143 148 143 144 146 147 160 176 177 176 158 149 146 139 134 134 138 140 142 142 140 134 128 121 115 111 104 95 79 60 39 25 11 5 360 354 352 350 351 353 355 354 352 350 347 345 344 343 344 345 342 340 338 340 344 343 345 346 347 348 346 348
266 208 196 222 250 258 266 271 277 290 349 54 54 39 45 57 40 19 16 0 51 103 117 67 30 18 230 96 103 115 112 130 157 150 140 141 142 143 148 146 144 148 154 165 169 155 155 157 152 150 151 156 159 153 148 141 134 134 128 121 113 101 89 56 20 2 353 349 348 345 346 347 347 348 348 351 352 352 350 348 345 341 338 336 336 336 332 330 329 329 331 333 335 335 332 333 334
254 279 238 224 259 260 276 279 302 318 4 46 54 38 40 54 46 23 355 344 26 73 104 90 32 357 63 99 113 122 121 144 163 152 139 139 140 144 150 142 139 138 141 157 161 155 158 162 161 163 165 165 161 153 149 144 141 136 128 119 105 85 20 348 339 334 336 338 339 341 343 343 343 343 342 346 349 350 350 349 347 341 338 336 335 335 331 327 324 322 324 324 325 326 321 321 323
274 301 304 272 290 271 282 273 294 325 42 63 43 31 49 57 45 29 346 345 42 63 105 121 13 331 105 108 127 137 135 151 157 148 141 141 140 140 145 140 139 138 133 136 138 140 147 158 166 166 163 154 144 146 139 130 139 132 140 142 124 236 317 308 312 321 330 336 340 341 341 342 340 337 337 342 346 346 347 346 344 341 337 335 333 335 332 326 323 321 322 322 322 321 317 317 317
291 308 322 277 301 280 284 268 264 323 86 81 46 12 60 76 57 48 9 18 60 85 120 135 21 5 62 88 137 156 156 159 153 149 145 144 143 142 146 144 143 136 129 128 123 124 129 143 160 153 141 121 83 108 161 151 162 152 179 184 205 233 259 281 309 323 330 337 340 340 340 339 334 332 333 337 342 343 342 342 340 338 335 333 332 333 331 326 324 323 323 321 321 320 319 318 317
278 309 321 250 284 270 275 268 224 129 83 99 92 21 58 90 64 63 26 35 108 114 88 72 68 59 68 89 130 162 166 163 154 152 149 149 153 153 151 152 150 138 131 131 124 123 124 126 130 115 103 36 35 7 323 240 148 224 214 218 237 256 306 317 325 327 329 332 336 339 338 338 340 342 338 336 339 338 336 337 337 335 332 332 331 331 330 327 325 324 323 321 319 319 318 317 318
232 285 279 256 264 256 295 303 62 84 96 114 84 24 24 90 80 78 22 54 161 110 87 80 89 84 89 105 140 166 160 162 160 158 154 155 160 154 151 156 155 144 137 134 129 126 120 123 121 116 134 151 134 128 276 247 331 328 302 308 303 310 328 330 330 327 328 328 334 340 342 349 352 346 333 327 331 330 330 332 333 333 332 331 330 331 329 327 326 325 322 321 318 317 319 317 315
201 213 224 250 255 243 343 12 32 14 32 49 59 41 13 32 81 55 10 188 149 107 111 99 111 85 85 111 137 152 155 166 164 162 156 155 154 144 143 148 154 154 145 138 135 133 126 125 118 121 149 167 163 168 235 293 350 360 351 340 331 338 335 331 331 328 330 330 335 341 346 351 336 317 312 314 321 324 325 329 334 334 332 330 331 331 328 326 324 323 320 319 318 317 317 316 317
213 222 227 239 267 282 47 43 41 45 20 354 38 64 26 24 45 16 348 110 71 69 78 54 82 91 80 96 103 129 151 162 155 152 146 139 137 132 135 134 146 159 150 141 141 142 136 129 123 131 144 142 148 140 9 0 16 8 355 345 341 350 336 333 333 322 324 327 328 329 331 329 314 312 313 314 322 329 331 334 337 338 335 332 333 332 329 328 327 328 325 321 324 323 323 326 329
217 217 246 234 334 1 45 54 56 57 28 352 19 44 36 47 41 1 339 63 61 49 25 24 55 84 82 83 94 123 136 141 134 128 125 120 124 126 128 124 133 148 142 143 149 150 139 130 142 164 172 164 159 135 68 7 298 286 348 344 350 351 328 349 342 312 318 327 322 325 334 334 334 339 330 323 331 339 340 339 337 337 334 331 333 335 332 331 332 333 332 330 333 335 334 334 335
215 200 248 274 4 14 56 62 60 55 38 9 9 25 44 59 45 32 27 47 54 30 17 15 28 59 80 90 96 115 118 121 118 114 114 110 117 118 118 119 125 130 129 134 147 154 131 114 136 176 209 207 208 204 292 292 282 297 310 302 356 0 344 26 330 306 320 333 330 336 355 358 358 358 332 327 337 343 341 335 332 333 331 329 332 333 328 327 331 335 336 335 334 335 335 333 334
247 226 251 269 304 29 75 69 52 43 42 21 30 37 40 63 51 46 49 53 38 15 15 19 18 39 72 93 98 106 106 108 107 107 107 100 103 104 109 119 123 118 112 110 110 125 119 110 145 147 227 257 275 296 306 300 306 306 297 293 231 54 20 28 0 341 335 344 351 349 357 5 4 345 323 334 343 342 340 334 333 337 334 332 333 327 323 326 332 336 337 335 332 332 333 333 333
245 251 258 266 319 44 66 64 46 43 44 35 46 28 24 75 61 52 56 51 41 33 33 43 50 60 77 90 94 98 98 97 96 96 95 90 90 90 92 102 110 108 101 104 111 116 105 82 117 148 42 334 1 67 69 357 13 13 14 32 80 65 48 43 39 20 347 353 2 1 2 360 360 344 340 350 349 343 345 342 341 345 338 335 337 326 322 327 331 334 334 331 329 330 331 332 330
217 274 286 310 57 57 58 56 49 56 60 47 48 19 45 78 70 54 56 49 47 51 55 62 69 77 82 85 87 89 89 88 86 84 83 82 83 86 90 96 105 109 100 95 101 102 88 76 74 75 77 71 72 84 76 63 66 61 57 62 65 59 55 49 41 14 356 6 5 6 11 6 2 354 352 353 350 348 348 347 342 340 336 337 337 324 319 322 324 329 330 328 326 325 326 328 328
210 254 280 25 72 83 73 66 67 69 80 68 61 65 71 82 74 56 52 52 58 61 66 70 74 75 75 75 76 77 76 77 79 78 81 85 90 92 92 95 99 100 95 92 96 96 90 89 87 84 86 86 85 83 77 76 75 74 74 73 70 65 60 51 34 11 0 6 7 5 1 358 356 351 349 348 347 345 345 347 336 331 334 334 330 317 312 314 318 324 327 327 324 322 324 326 326
232 270 313 5 60 99 86 81 97 91 92 103 87 78 73 74 69 55 48 59 67 69 70 72 75 73 71 72 72 74 76 78 81 83 87 91 96 97 93 93 93 90 90 93 95 96 96 99 96 89 86 89 93 93 87 84 80 79 79 79 76 68 60 46 28 18 2 353 354 356 352 348 347 344 343 341 341 340 341 341 332 330 333 332 327 310 302 306 315 322 327 328 325 322 322 324 325
344 337 347 322 303 105 102 98 112 114 97 99 92 78 58 53 64 53 47 70 77 73 71 71 75 73 73 76 74 77 80 79 83 86 84 82 84 86 88 92 93 92 92 91 88 91 98 103 102 98 91 87 88 89 86 85 82 77 74 71 61 47 35 19 10 8 1 352 344 344 346 343 339 337 336 335 335 335 335 335 330 329 328 323 315 298 295 304 314 322 325 323 319 317 319 320 320
340 349 331 278 222 111 102 119 127 130 101 98 97 79 48 48 58 30 36 81 83 76 73 70 72 72 72 75 74 74 75 75 79 80 76 74 75 77 80 84 89 95 95 92 90 93 97 98 100 101 98 95 89 83 77 74 69 60 52 42 33 22 11 4 359 356 354 349 341 337 338 338 334 331 331 329 329 330 330 330 328 327 320 307 299 294 297 305 312 315 312 312 313 313 312 308 309
304 289 298 273 175 106 69 86 108 120 95 125 112 81 42 43 35 13 38 89 84 77 74 70 71 70 70 73 73 72 71 73 75 74 74 74 76 77 78 79 85 90 90 92 98 99 94 91 91 90 89 89 83 75 65 57 48 38 30 20 13 7 359 355 350 347 346 342 337 332 331 332 329 326 327 326 325 327 327 326 325 323 315 303 301 300 301 305 308 306 305 310 312 306 299 297 303
265 226 232 273 168 102 57 69 86 99 100 151 145 80 49 42 23 22 55 87 82 76 74 72 72 70 70 71 71 70 69 71 72 72 75 76 78 80 80 81 84 86 87 89 91 87 84 81 79 75 71 67 62 56 49 40 29 19 13 6 0 355 349 347 344 340 338 338 334 328 328 329 327 326 325 324 324 325 324 324 322 320 311 305 306 307 308 309 309 309 309 307 299 291 290 296 301
237 206 174 243 169 91 43 45 48 91 124 172 160 70 73 41 24 35 65 80 80 79 77 76 76 74 73 72 72 71 69 70 72 74 77 79 82 85 86 86 87 87 85 82 77 75 73 70 65 60 55 49 43 37 29 21 12 5 360 355 353 351 345 342 340 336 334 335 332 327 327 328 327 326 325 324 324 324 323 322 321 318 311 307 308 311 313 313 312 311 306 298 290 287 289 292 293
198 217 312 232 131 117 53 37 32 38 153 182 150 94 87 55 35 45 69 79 81 82 80 79 79 78 78 76 76 75 73 73 75 78 81 84 86 87 87 86 85 82 79 75 70 67 63 58 52 45 38 30 23 16 8 3 357 355 353 350 348 349 345 340 338 334 332 332 330 327 326 326 326 325 325 323 324 324 322 322 321 317 310 307 308 311 313 313 311 305 296 291 288 287 287 289 291
159 40 328 348 71 128 136 58 28 7 61 61 72 103 98 67 50 52 70 78 82 83 80 80 79 80 80 80 80 78 77 76 75 76 79 84 86 85 83 80 78 75 70 66 60 54 48 42 34 27 20 14 8 3 358 355 351 350 349 347 345 345 344 340 335 332 330 330 330 327 324 324 325 325 324 323 323 323 321 321 319 313 309 307 308 309 311 310 305 297 292 289 287 288 289 291 294
7 11 343 350 19 14 149 98 6 8 83 66 67 94 88 77 69 62 70 76 81 83 81 83 82 82 82 82 82 80 79 77 76 77 79 83 83 81 78 75 71 66 60 54 45 38 30 24 18 11 8 4 2 359 355 352 350 348 346 345 343 342 341 339 334 330 329 329 328 327 324 323 323 324 323 321 322 322 320 319 316 312 310 307 308 308 309 306 299 294 292 291 290 290 292 295 299
340 348 345 339 343 8 74 112 341 18 89 89 80 91 85 83 77 68 71 75 81 83 84 86 86 86 86 85 84 83 82 79 79 82 84 85 81 77 72 67 62 55 48 40 31 25 18 13 9 4 1 360 359 356 354 351 348 345 344 343 341 341 341 339 334 330 328 328 327 325 324 322 322 323 323 320 321 321 319 318 316 313 310 308 309 308 308 306 300 297 295 294 294 293 294 297 298
319 323 323 295 304 38 84 99 25 38 78 84 82 92 89 81 73 72 75 77 82 85 88 88 88 89 88 89 88 86 86 84 85 87 86 82 76 70 63 56 49 41 33 25 18 13 9 6 3 1 359 357 356 354 351 349 346 344 342 341 339 340 339 337 334 329 327 328 326 324 324 322 321 322 323 320 320 321 319 318 317 314 312 312 311 311 312 310 305 301 299 297 297 297 297 298 299
307 306 298 277 295 69 99 106 70 60 73 82 90 92 86 78 68 68 71 78 83 85 88 89 91 93 92 93 93 92 91 88 88 87 83 76 68 61 53 44 35 26 19 13 7 5 4 2 359 357 356 354 352 351 349 347 346 343 342 341 339 338 338 336 332 329 328 328 326 324 324 323 322 321 322 320 320 320 319 319 319 317 316 316 315 315 314 312 308 304 300 298 299 300 301 304 305
300 289 283 302 37 18 79 107 116 78 86 105 100 90 80 77 70 62 64 70 77 84 92 94 96 97 97 99 98 98 97 93 88 82 77 69 59 50 40 32 22 14 9 5 1 359 358 357 356 354 352 351 349 349 347 346 345 344 342 341 339 337 338 336 333 330 329 329 328 325 325 325 324 323 323 322 320 319 319 319 320 320 320 320 318 318 316 315 312 307 303 301 300 301 303 307 309
276 302 309 12 35 353 51 104 164 83 94 121 102 91 83 80 77 70 67 66 70 79 89 95 102 103 103 105 106 106 104 98 90 79 68 57 47 36 25 17 11 6 2 359 357 356 354 352 353 351 348 347 347 346 344 343 343 342 341 339 339 338 337 337 334 331 330 330 329 328 327 328 327 327 327 325 321 320 320 321 323 323 324 324 322 321 321 320 318 314 309 304 303 305 306 308 311
335 16 14 4 17 1 6 159 216 56 96 127 110 99 102 98 90 80 82 86 81 78 82 85 92 99 104 109 111 112 110 104 97 87 70 47 30 21 14 8 4 1 357 356 355 353 351 349 348 346 344 344 342 341 341 340 339 339 338 337 338 337 336 335 331 329 329 329 330 330 329 330 330 331 331 327 322 320 321 322 323 324 326 327 325 324 323 323 322 318 310 305 307 310 311 311 311
50 50 35 340 352 334 281 297 323 54 101 127 123 109 114 110 100 100 107 107 98 92 93 91 92 98 103 108 109 111 113 110 107 97 80 42 11 5 5 2 359 358 356 354 353 350 348 345 343 341 340 339 339 339 338 338 338 338 337 336 336 335 334 334 329 327 329 330 332 331 331 333 333 334 335 327 318 317 319 321 322 323 325 328 327 327 325 324 323 316 308 307 309 312 313 312 310
33 70 18 338 338 310 295 309 299 136 130 159 157 112 98 110 105 117 124 113 103 103 106 105 110 116 115 116 114 113 115 113 111 102 85 36 355 352 357 358 356 355 354 351 349 347 344 341 339 338 336 336 337 338 337 338 338 338 337 336 335 334 333 332 328 327 328 330 331 329 330 332 332 335 337 324 312 313 316 319 321 322 325 328 329 328 327 326 322 315 313 312 312 312 312 311 310
322 290 312 338 319 290 284 296 285 202 172 183 189 175 124 130 123 131 133 127 120 114 116 118 123 128 129 130 130 127 127 120 111 96 65 356 320 326 342 351 352 351 349 347 344 341 340 339 337 335 334 333 334 336 336 337 337 337 337 335 332 330 329 327 324 324 326 327 327 327 328 328 329 334 331 316 309 310 314 317 318 320 325 328 329 329 328 325 320 318 319 317 313 313 313 312 311
318 287 330 326 291 279 282 285 269 249 140 134 190 244 130 127 145 147 148 142 135 124 116 121 129 135 140 143 146 144 140 141 139 137 295 287 291 300 319 336 345 346 344 342 340 338 337 336 334 333 332 331 332 334 335 336 337 337 336 333 329 326 325 323 322 322 323 325 324 324 325 323 326 328 321 313 307 306 310 312 313 317 322 326 328 329 326 322 321 321 319 315 313 312 313 313 312
286 301 304 287 260 268 279 267 253 236 137 106 338 334 80 122 146 161 177 157 130 144 146 150 157 157 166 166 163 165 156 181 225 258 281 288 293 300 309 322 335 341 340 339 337 335 333 332 330 329 329 330 330 332 334 335 336 335 333 329 324 323 322 321 321 321 323 324 323 324 324 321 321 324 324 315 302 300 303 303 307 313 319 324 326 325 323 321 319 318 316 314 313 312 313 313 312
285 312 298 263 199 232 253 236 253 238 124 66 352 357 55 123 144 179 204 183 115 159 157 165 182 177 185 190 193 203 213 253 270 279 292 304 308 309 311 315 325 333 335 334 333 331 327 327 327 326 329 329 329 332 334 335 337 335 331 325 320 320 320 320 320 320 322 323 322 323 322 318 319 325 327 312 298 298 299 300 305 312 319 324 324 322 321 320 318 317 316 316 315 313 312 311 307
288 311 303 274 165 204 239 222 245 254 96 341 349 353 14 123 153 173 197 175 166 236 171 160 189 202 206 210 217 228 246 264 274 281 290 301 307 309 308 305 313 324 328 329 328 325 323 324 325 328 332 332 331 332 334 336 337 335 331 323 318 318 319 319 319 318 319 318 318 318 315 314 317 320 319 308 302 299 297 300 306 312 319 321 321 320 319 318 317 316 316 316 315 314 311 307 304
303 321 325 329 69 197 258 238 237 10 28 209 31 0 352 134 170 137 142 167 187 247 240 167 182 208 214 219 230 243 258 268 279 287 291 297 301 303 299 296 305 316 322 323 322 320 321 323 326 331 335 333 330 331 331 333 334 334 332 322 314 316 318 319 318 316 317 316 315 314 313 314 315 315 317 311 303 299 298 301 306 311 317 319 319 318 317 316 315 315 315 314 314 312 308 306 303
346 355 356 358 24 10 336 353 1 10 352 30 38 5 354 96 126 149 153 168 181 245 302 149 173 202 215 225 242 254 265 274 285 292 295 298 303 303 294 293 302 311 316 319 318 318 320 323 327 332 337 333 328 328 328 329 331 332 333 322 309 311 316 319 319 318 318 317 315 315 316 317 316 317 318 314 305 300 297 300 305 312 316 317 317 316 316 315 315 314 314 313 312 309 307 304 300
351 360 10 18 36 19 343 358 5 333 315 321 5 33 39 153 169 164 153 153 167 190 326 81 163 200 223 236 251 261 266 274 286 293 297 300 305 305 295 293 300 306 313 316 316 316 318 322 328 333 336 332 327 326 326 327 329 330 330 321 306 306 313 319 320 320 319 316 315 316 318 318 316 315 314 313 309 300 295 298 305 311 315 317 317 317 316 315 315 315 314 312 311 309 306 303 299
327 354 25 51 63 47 283 348 348 300 298 306 346 81 273 245 181 147 138 146 161 174 183 170 194 216 225 239 250 257 262 272 285 291 295 299 303 303 298 297 300 304 310 312 311 312 314 321 328 332 334 332 326 324 324 325 328 328 327 319 307 306 311 316 318 318 316 314 314 316 317 316 313 311 309 309 308 300 297 300 307 312 317 319 317 316 316 315 315 315 313 311 309 308 307 304 302
299 350 34 52 44 327 267 269 263 264 291 300 24 107 18 343 162 141 137 157 173 184 191 192 209 216 218 239 249 256 269 284 290 289 295 302 303 304 303 300 295 298 302 303 306 309 312 319 325 329 332 330 325 322 321 323 324 325 324 317 308 306 310 313 315 315 313 312 313 313 313 312 310 308 307 305 304 302 303 307 312 315 316 316 314 315 315 314 313 311 310 309 308 308 306 303 302
286 4 25 279 239 167 276 288 285 294 292 291 349 30 96 95 206 169 158 179 183 188 199 202 215 225 229 243 253 269 291 298 298 297 302 306 305 306 307 297 289 291 296 302 310 310 309 315 318 324 328 327 323 319 319 320 321 322 321 313 305 304 308 311 312 312 312 311 310 310 310 309 308 308 306 305 305 305 307 312 315 315 314 313 313 313 312 310 309 307 307 306 305 306 304 302 301
355 358 323 288 200 117 202 287 331 339 299 288 323 322 233 234 262 174 182 208 196 198 209 209 220 236 242 254 273 295 300 300 303 304 303 302 303 310 311 299 287 290 297 309 315 308 304 307 310 318 324 323 321 318 317 317 317 318 316 308 301 301 305 308 308 310 311 309 307 308 309 309 308 308 306 306 305 306 309 313 315 315 314 312 310 310 310 308 307 306 306 304 302 301 299 298 298
78 222 295 336 87 42 297 289 319 316 297 289 311 327 298 273 250 170 198 213 192 192 211 213 238 273 282 291 302 303 301 302 303 301 298 292 291 299 306 297 286 287 295 305 308 302 300 300 305 315 320 320 319 316 315 314 314 315 312 304 300 301 303 304 306 308 307 305 305 307 309 308 307 306 305 305 306 307 310 311 313 314 311 308 306 307 308 307 305 303 302 300 298 296 293 291 290
28 337 344 33 172 220 267 273 222 258 290 294 308 319 317 331 33 150 175 186 159 162 223 258 312 314 309 310 312 308 307 307 305 306 308 303 293 288 289 286 283 286 294 301 301 298 296 297 306 314 316 316 316 314 311 310 312 313 309 303 300 300 301 303 305 306 304 305 307 308 308 307 305 304 305 305 306 306 308 309 311 311 308 307 306 305 304 303 301 298 297 295 294 294 293 292 291
360 6 20 359 324 124 121 254 136 140 285 273 301 296 256 214 18 109 133 149 162 200 227 260 299 306 312 312 309 307 306 307 310 312 315 315 310 303 293 284 284 289 294 298 294 291 292 299 310 313 312 312 313 311 309 308 310 311 307 303 300 299 301 303 304 304 303 306 307 307 307 305 303 304 305 305 304 304 306 308 309 308 307 306 304 302 301 300 297 296 295 294 294 294 293 293 294
337 6 36 355 337 51 35 308 50 62 263 217 265 283 264 225 174 129 146 171 190 205 211 241 272 291 309 310 307 308 308 310 313 313 314 313 311 308 300 287 286 290 291 292 290 289 293 304 312 311 308 309 309 308 307 307 308 308 305 302 300 300 302 302 302 303 304 305 305 305 305 303 303 306 307 305 302 302 304 306 307 305 304 304 303 302 301 300 298 297 296 295 294 294 294 293 293